Vertical_Velocity
4 9 9 1 -4 1 -0 -0 3 1 -1 -1 -1 -2 -1 1 0 -1 -1 -1 0 2 1 -0 -1 -2 -2 -0 1 2 1 -2 -0 0 4 -2 0 -1 -4 -3 1 -2 -3
-7 -4 3 5 2 -0 1 1 -3 2 2 2 0 -0 1 -1 -0 -1 -1 -5 -2 2 4 1 2 -3 -4 -1 -0 2 2 2 -1 -2 -1 3 8 -3 0 -2 2 -4 -2
-1 -1 -4 7 7 4 3 2 6 3 1 0 0 1 -1 -0 -1 -4 -2 -1 -0 0 -2 -1 0 1 -2 -3 -4 -1 2 2 -4 -4 -11 -4 7 11 11 3 5 3 -1
3 -1 -7 -3 3 4 4 2 0 1 3 1 -1 -2 1 -3 -6 0 -1 -1 0 -1 -0 -2 -4 -2 1 2 -1 -4 -4 -1 3 4 1 0 -6 -6 -4 10 16 18 5
3 2 -0 -1 -5 -5 -4 -0 -2 2 0 1 -3 0 -4 1 2 -0 -0 -1 3 3 8 3 2 0 -1 -1 -1 -0 0 2 4 1 1 2 0 -1 -11 -6 5 -1 5
3 -2 1 -3 -2 2 -2 -0 -2 0 -1 0 -1 -4 4 0 1 5 2 -0 3 2 0 1 1 1 2 4 3 2 2 1 4 0 0 -1 -2 -0 -3 -3 -3 -4 7
-2 -1 5 -4 8 7 3 -1 -3 -2 -1 -0 -3 -0 2 5 4 0 0 -0 -2 -2 -1 0 -5 -4 -4 -5 -3 -3 -5 -5 -4 -4 -2 -3 -2 -3 -8 -13 -13 -16 6
-2 0 4 11 10 1 -0 -2 -3 2 1 2 0 -3 -4 1 1 -2 -4 -5 -5 -6 -4 -5 -2 -1 -3 -4 -5 -5 -3 -3 -4 -4 -5 -3 -6 -5 -2 -8 -9 -13 -3
0 -2 2 -2 -6 -4 -2 -1 1 3 2 -2 -5 -4 -1 -2 -5 -2 -1 -2 -3 -3 -1 0 -1 -2 -1 -2 -3 -3 -2 -3 -2 0 -0 -2 -3 -6 -2 -2 -7 -5 -15
-0 -1 2 0 -3 -2 3 6 5 0 -1 -3 -4 -7 -7 -5 -3 -6 -3 -2 -1 -3 -1 -1 -2 -3 2 -1 -5 -1 1 1 -2 -2 -0 1 2 3 -3 -1 -2 -4 -5
-0 3 2 4 5 0 -1 -1 -2 -3 -2 -3 -2 -2 -2 -2 22 -1 0 0 -0 -0 -1 0 1 0 2 -0 -1 -1 -2 -1 -3 -2 -1 -1 -1 -6 -4 -4 -2 -0 -1
-3 -0 2 3 3 3 2 -1 -1 4 5 3 2 0 2 2 25 2 -1 -0 2 1 3 4 3 -1 -0 0 -1 0 -3 -2 -2 -1 0 -3 -2 -2 -1 2 1 0 -4
4 3 6 2 2 8 6 3 3 -1 -2 -4 -2 -4 0 -2 -1 -1 -1 0 1 2 -1 -2 0 -1 -3 -4 -4 -3 -4 1 2 -3 -4 -3 -4 -1 -0 1 -1 -4 -0
-1 4 -0 0 1 -0 4 -0 -2 -3 -6 -4 -3 -2 1 -1 -2 -1 -1 -1 -2 -4 -1 -1 -0 1 -3 -2 -2 1 1 3 -0 1 -1 -1 1 -1 2 1 -2 0 -0
-2 -4 0 -3 -0 -3 -3 -1 -3 -4 -2 -1 -2 -1 -1 0 1 -0 -1 -2 -2 -1 -0 0 2 4 4 1 3 3 -2 -3 -4 -5 -2 -2 4 4 2 -0 1 -1 1
-3 2 -2 -4 -3 1 -3 -5 -2 0 0 1 -1 -1 2 2 -1 -0 1 2 -3 -2 -2 -2 1 4 3 -0 -3 -3 -3 -2 -4 -0 -2 -2 1 -1 -3 1 2 0 -0
-6 -2 -1 2 -1 1 4 2 0 0 0 1 1 -1 -4 -2 -1 -2 -2 -1 1 0 0 -1 -1 5 4 -1 0 -3 -1 -3 -4 -2 -2 -0 2 -1 -2 1 0 0 -1
-0 0 -2 -3 -2 -2 -1 1 1 3 5 4 1 -1 -0 1 2 2 1 0 2 2 -1 2 1 -2 -2 -0 -3 -3 -5 -5 -3 -0 -0 1 2 0 -1 0 1 -1 -3
-1 -1 -1 -1 0 2 2 3 1 1 0 3 2 2 3 0 -0 -1 -1 -0 1 3 5 4 0 -1 -1 -3 -3 -4 -3 -2 -2 1 -1 -0 0 0 1 1 1 0 -2
1 -0 -1 -0 0 -1 -3 -3 -1 1 2 3 -2 -0 -1 0 1 -2 -0 1 3 4 3 3 4 3 -1 -2 -1 -2 1 -1 -0 -2 -2 1 0 -1 1 2 0 1 -0
1 2 2 1 -1 -1 0 -1 -0 -1 1 -0 -2 -1 -3 -3 -3 0 -2 -1 3 3 2 3 -3 -7 -8 -1 -1 -2 0 -2 1 -0 -1 1 1 -0 0 -0 1 0 1
2 2 1 0 -1 -2 -2 -2 -2 -6 -3 -3 -4 -3 -2 1 2 2 3 0 -3 -4 -3 -1 -1 -2 -5 -5 -2 -4 -2 -1 0 -0 -1 -0 2 1 -0 -0 -0 1 2
2 1 0 0 2 1 1 1 1 2 2 1 1 1 1 1 2 5 2 2 2 1 3 -5 -4 -0 0 -0 -4 -1 -1 0 -0 -1 0 -1 -1 1 2 0 1 1 -0
-3 -1 -1 -1 -0 1 1 0 1 1 2 2 -1 -1 -1 -0 -1 -0 1 2 5 -2 -2 1 -1 -2 -0 0 -1 5 2 3 1 1 2 0 -1 -1 -0 -1 -1 1 -1
1 1 -0 1 0 -0 -1 1 -1 0 -1 0 1 1 -0 -0 0 1 2 0 7 -3 -6 1 -5 -6 7 1 -3 -2 1 -0 0 3 2 0 -1 0 -0 -1 -0 -1 -1
-1 -1 -0 0 0 -2 -1 -1 -2 0 3 6 3 1 -1 4 2 2 3 17 2 3 2 -0 -8 -0 1 2 -0 0 -0 2 1 4 1 1 -0 1 2 1 -0 -1 -0
Height
5795 5796 5798 5798 5797 5797 5797 5796 5796 5797 5798 5797 5797 5798 5798 5795 5793 5791 5789 5787 5785 5782 5778 5774 5771 5766 5761 5755 5750 5745 5740 5735 5731 5726 5721 5715 5709 5703 5698 5694 5690 5686 5682
5790 5792 5792 5793 5795 5796 5796 5795 5794 5794 5795 5795 5795 5794 5792 5789 5787 5786 5783 5780 5777 5774 5771 5766 5762 5756 5749 5743 5739 5734 5729 5723 5719 5713 5707 5703 5698 5692 5688 5682 5677 5672 5667
5779 5782 5784 5787 5790 5791 5792 5792 5793 5793 5792 5792 5790 5789 5787 5785 5782 5780 5778 5774 5770 5767 5762 5756 5749 5744 5738 5733 5727 5722 5718 5712 5704 5698 5693 5688 5685 5681 5677 5671 5666 5659 5651
5783 5780 5783 5786 5787 5787 5787 5788 5788 5788 5788 5788 5785 5784 5782 5779 5776 5774 5771 5767 5762 5756 5750 5744 5738 5732 5727 5722 5716 5710 5704 5698 5693 5687 5682 5675 5670 5666 5663 5657 5649 5641 5631
5785 5783 5782 5782 5783 5784 5784 5784 5785 5785 5783 5783 5780 5778 5775 5772 5770 5767 5762 5757 5752 5747 5742 5736 5731 5725 5718 5712 5705 5698 5692 5686 5680 5674 5667 5660 5652 5646 5640 5637 5628 5618 5607
5782 5781 5782 5781 5780 5780 5781 5781 5781 5779 5779 5778 5775 5772 5770 5767 5763 5759 5753 5748 5742 5736 5729 5723 5717 5711 5704 5698 5691 5685 5677 5670 5664 5656 5649 5641 5633 5626 5618 5613 5606 5598 5586
5780 5780 5779 5778 5777 5778 5779 5777 5776 5775 5774 5771 5768 5765 5762 5758 5753 5747 5741 5734 5728 5721 5714 5707 5699 5693 5687 5681 5675 5667 5660 5654 5647 5639 5631 5624 5616 5606 5597 5588 5581 5574 5567
5775 5776 5776 5776 5777 5776 5775 5773 5772 5771 5768 5765 5760 5754 5751 5747 5742 5735 5727 5720 5714 5708 5702 5695 5689 5682 5674 5668 5661 5653 5646 5639 5631 5623 5615 5607 5597 5587 5575 5564 5554 5548 5539
5772 5773 5775 5774 5772 5771 5769 5768 5767 5765 5762 5757 5751 5745 5740 5735 5729 5724 5718 5711 5705 5699 5692 5685 5678 5671 5663 5657 5647 5639 5632 5624 5616 5608 5598 5588 5578 5566 5555 5541 5528 5516 5510
5768 5769 5770 5769 5767 5766 5764 5763 5760 5756 5751 5746 5740 5734 5729 5724 5719 5713 5709 5702 5695 5687 5680 5673 5665 5657 5650 5641 5632 5625 5617 5608 5598 5589 5579 5567 5557 5544 5532 5520 5504 5492 5482
5764 5764 5765 5765 5764 5760 5757 5753 5749 5745 5740 5735 5731 5726 5721 5716 5713 5703 5696 5690 5682 5675 5667 5659 5651 5643 5635 5626 5617 5608 5598 5588 5577 5567 5558 5547 5535 5522 5508 5496 5484 5472 5464
5758 5758 5759 5758 5756 5754 5751 5746 5741 5737 5732 5727 5719 5713 5708 5704 5703 5691 5683 5675 5669 5661 5653 5646 5638 5629 5619 5610 5600 5590 5580 5570 5559 5548 5537 5525 5512 5499 5487 5476 5465 5456 5448
5753 5751 5751 5748 5745 5743 5739 5735 5730 5725 5718 5712 5707 5702 5698 5691 5685 5677 5670 5662 5655 5648 5639 5631 5622 5612 5602 5592 5582 5573 5562 5552 5540 5529 5516 5504 5491 5479 5468 5457 5448 5442 5436
5745 5742 5740 5737 5734 5730 5726 5722 5717 5713 5708 5704 5699 5692 5685 5678 5671 5664 5657 5649 5641 5633 5624 5616 5607 5597 5586 5576 5565 5553 5543 5532 5520 5508 5495 5484 5471 5461 5453 5443 5435 5430 5426
5735 5732 5730 5726 5723 5720 5717 5714 5709 5704 5699 5693 5686 5679 5672 5666 5659 5652 5644 5635 5626 5618 5609 5601 5592 5581 5570 5559 5547 5534 5521 5511 5500 5488 5477 5467 5458 5449 5440 5430 5424 5420 5417
5725 5723 5721 5719 5716 5713 5710 5706 5702 5695 5687 5681 5674 5667 5661 5655 5646 5638 5629 5621 5612 5603 5594 5585 5575 5564 5552 5540 5527 5514 5502 5491 5481 5470 5459 5450 5443 5435 5426 5420 5415 5411 5408
5715 5713 5712 5710 5708 5705 5700 5694 5688 5682 5675 5669 5662 5656 5648 5639 5632 5624 5616 5606 5597 5587 5577 5567 5558 5547 5534 5521 5509 5497 5486 5475 5465 5454 5445 5437 5430 5422 5415 5410 5406 5402 5399
5708 5706 5704 5700 5696 5692 5687 5681 5675 5669 5664 5657 5649 5641 5634 5626 5618 5609 5600 5591 5582 5571 5560 5549 5538 5527 5516 5505 5494 5483 5472 5461 5449 5440 5432 5426 5418 5411 5405 5401 5397 5393 5390
5700 5697 5693 5690 5685 5680 5675 5669 5662 5656 5650 5643 5636 5628 5620 5611 5603 5594 5586 5576 5567 5556 5545 5533 5521 5511 5500 5490 5479 5469 5458 5446 5436 5428 5420 5414 5408 5402 5396 5392 5389 5385 5382
5691 5687 5683 5678 5673 5667 5661 5655 5649 5643 5637 5630 5621 5613 5605 5597 5588 5579 5570 5560 5551 5542 5529 5518 5507 5496 5486 5476 5466 5455 5444 5433 5424 5416 5409 5403 5398 5392 5388 5384 5381 5378 5375
5679 5675 5670 5665 5659 5654 5648 5642 5636 5629 5623 5615 5608 5600 5592 5583 5573 5562 5552 5543 5533 5522 5513 5503 5492 5481 5472 5463 5453 5442 5432 5421 5413 5405 5399 5394 5389 5384 5380 5376 5373 5370 5368
5668 5663 5658 5652 5647 5641 5635 5628 5622 5615 5608 5601 5594 5585 5576 5567 5556 5545 5534 5523 5512 5503 5494 5487 5478 5466 5456 5447 5438 5428 5418 5408 5401 5394 5388 5384 5380 5376 5372 5368 5365 5363 5360
5656 5651 5645 5639 5634 5628 5621 5615 5609 5602 5595 5587 5578 5569 5559 5549 5540 5529 5518 5506 5496 5487 5478 5469 5461 5454 5442 5432 5422 5413 5404 5396 5390 5384 5378 5374 5370 5368 5364 5360 5357 5355 5353
5643 5637 5632 5626 5621 5615 5609 5603 5596 5588 5580 5571 5561 5551 5542 5532 5521 5511 5501 5491 5481 5471 5462 5453 5445 5436 5428 5417 5408 5400 5392 5384 5378 5373 5368 5364 5360 5359 5356 5353 5349 5347 5345
5631 5626 5620 5614 5608 5602 5596 5589 5581 5573 5564 5555 5545 5536 5525 5515 5504 5494 5484 5473 5465 5452 5444 5435 5426 5418 5412 5400 5391 5384 5378 5372 5367 5363 5358 5354 5350 5349 5347 5345 5342 5339 5337
5617 5611 5606 5600 5594 5588 5581 5574 5566 5558 5549 5541 5530 5520 5509 5498 5488 5478 5471 5462 5449 5438 5426 5414 5403 5399 5390 5381 5374 5368 5363 5358 5354 5352 5347 5343 5341 5340 5339 5337 5334 5332 5330